[[{"header":{"parameterUnit":"m.s-1","parameterCategory":2,"la1":30.2991,"la2":30.254,"lo1":-89.0895,"lo2":-89.0444,"dy":0.0017,"dx":0.0017,"nx":28,"ny":28,"refTime":"2024-04-27T03:00:00:Z","depth":"0","parameterNumber":2,"parameterNumberName":"U-component_of_CURRENTS"},"data":[0,0,0,0,0,0,0,0,0,0,0,0,0,0,0,0,0,0,0,0,0,0,0,0,0,0,0,0,0,0,0,0,0,0,0,0,0,0,0,0,0,0,0,0,0,0,0,0,0,0,0,0,0,0,0,0,0,0,0.2948,0.2948,0,0.2933,0.2932,0.2932,0.2907,0.2906,0.2906,0.2906,0.2879,0.2879,0.2878,0,0,0,0,0,0,0,0,0,0,0,0,0,0.298,0.2979,0.2948,0.2948,0.2948,0.2933,0.2932,0.2932,0.2907,0.2906,0.2906,0.2906,0.2879,0.2879,0.2878,0,0,0,0,0,0,0,0,0,0,0,0,0,0.2963,0.2979,0.2948,0.2935,0.2934,0.2933,0.2932,0.2932,0.2907,0.2906,0.2906,0.2906,0.2879,0.2879,0.2878,0.2883,0,0,0.2876,0.2876,0,0,0,0,0,0,0,0,0.2964,0.2962,0.2937,0.2936,0.2935,0.2923,0.2934,0.2915,0.2907,0.2915,0.2906,0.2905,0.2894,0.2892,0.2888,0.2881,0.288,0.2876,0.2876,0.2875,0.2875,0,0,0,0,0,0,0,0.2965,0.2963,0.294,0.2937,0.2936,0.2938,0.2935,0.293,0.2906,0.2914,0.2913,0.2914,0.2893,0.2888,0.2887,0.288,0.2876,0.2875,0.2875,0.2875,0.2902,0.2903,0,0,0,0,0,0,0.297,0.2964,0.2941,0.294,0.2951,0.2938,0.2935,0.2926,0.2906,0.2903,0.2915,0.2913,0.289,0.2888,0.2886,0.2913,0.2875,0.2875,0.2874,0.2901,0.2903,0.2904,0,0,0,0,0,0,0.2971,0.2968,0.2941,0.2954,0.2951,0.2938,0.2928,0.2926,0.2926,0.2907,0.2903,0.2919,0.2889,0.2887,0.2889,0.2911,0.2874,0.2874,0.29,0.2902,0.2903,0.2953,0,0,0,0,0,0,0.2972,0.2968,0.2967,0.2954,0.295,0.2949,0.2929,0.2926,0.2928,0.2926,0.291,0.2906,0.2889,0.289,0.2888,0.2909,0.2873,0.2898,0.2901,0.2903,0.295,0.2956,0.2961,0,0,0,0,0,0.2973,0.297,0.2967,0.2965,0.2948,0.295,0.2949,0.2937,0.2929,0.2935,0.2923,0.2907,0.2903,0.289,0.2888,0.2909,0.2897,0.29,0.2902,0.2947,0.2955,0.2961,0,0,0,0,0,0,0.2983,0.2967,0.2963,0.2955,0.2959,0.2947,0.2951,0.2945,0.294,0.2938,0.2916,0.2913,0.2927,0.2912,0.2899,0.2925,0.29,0.2902,0.2935,0.2942,0.2947,0.295,0.2873,0,0,0,0,0,0.2986,0.2977,0.2972,0.2968,0.2972,0.2965,0.2966,0.2961,0.2954,0.2951,0.2939,0.2931,0.2936,0.2933,0.2931,0.294,0.295,0.2955,0.2961,0.2966,0.2968,0.3009,0.3019,0.2912,0.2912,0.2912,0,0,0.2986,0.298,0.2973,0.2971,0.2971,0.2975,0.2964,0.297,0.2974,0.295,0.2951,0.2953,0.2944,0.2957,0.2962,0.2946,0.3003,0.2969,0.2973,0.2972,0.3013,0.3023,0.3033,0.2914,0.2914,0.2913,0,0,0.2988,0.2983,0.2979,0.2985,0.2993,0.299,0.2996,0.2993,0.2993,0.3,0.2989,0.3002,0.2996,0.2998,0.2998,0.3036,0.3037,0.3041,0.3066,0.3107,0.3116,0.3124,0.316,0.3171,0.3038,0.3039,0.3039,0,0.2994,0.2983,0.2982,0.2989,0.2995,0.2998,0.3006,0.3009,0.3007,0.3019,0.3006,0.3028,0.3017,0.3044,0.3055,0.3049,0.3073,0.3039,0.3115,0.3123,0.3131,0.3165,0.3177,0.3041,0.3041,0.3041,0.304,0,0.2991,0.2991,0.2995,0.2998,0.301,0.3017,0.3028,0.3044,0.3048,0.3052,0.3085,0.3079,0.3094,0.3097,0.3083,0.3135,0.3136,0.3123,0.3098,0.3145,0.3178,0.3189,0.3045,0.3044,0.3043,0.3043,0,0,0.2972,0.2988,0.2987,0.2995,0.3015,0.3021,0.305,0.3075,0.3098,0.3108,0.3142,0.3151,0.3161,0.3162,0.3159,0.3184,0.3255,0.3177,0.3178,0.3213,0.3353,0.3366,0.3378,0.3262,0.3264,0.3266,0.3359,0,0.2969,0.2981,0.299,0.3003,0.3012,0.304,0.3063,0.3093,0.3119,0.3154,0.3176,0.32,0.3182,0.3198,0.3226,0.325,0.3285,0.3231,0.3302,0.3304,0.3309,0.3392,0.3351,0.3432,0.3369,0.3371,0.3372,0,0.2952,0.2967,0.2977,0.3011,0.3018,0.303,0.3083,0.3106,0.3168,0.3191,0.3238,0.3257,0.3305,0.3278,0.3355,0.3326,0.3347,0.3359,0.3363,0.3363,0.3337,0.3373,0.3454,0.3432,0.3389,0.3388,0.3387,0,0.2923,0.2952,0.2958,0.2967,0.3007,0.3029,0.3058,0.3118,0.3145,0.3221,0.3255,0.3319,0.3355,0.3397,0.3436,0.3404,0.3523,0.3479,0.3511,0.3512,0.3484,0.3479,0.355,0.354,0.354,0.354,0.354,0,0.29,0.2904,0.2946,0.2945,0.2964,0.3012,0.304,0.3088,0.316,0.3199,0.3268,0.3319,0.3389,0.3464,0.348,0.3551,0.3567,0.354,0.3548,0.3501,0.3497,0.3479,0.3446,0.3543,0.3542,0.3542,0.3541,0,0.2848,0.2873,0.2881,0.293,0.2941,0.2955,0.3011,0.3043,0.3122,0.3185,0.3214,0.3339,0.345,0.3525,0.3612,0.3612,0.3586,0.3681,0.3624,0.3624,0.3606,0.3577,0.3387,0.3291,0.3726,0.3727,0.3728,0,0.2816,0.2817,0.285,0.2854,0.2868,0.2898,0.2919,0.3002,0.3045,0.3188,0.3221,0.3371,0.3461,0.362,0.3686,0.3764,0.3629,0.3741,0.3663,0.3629,0.3602,0.3341,0.3254,0.3648,0.3648,0.3648,0.3648,0,0.2764,0.2775,0.2786,0.2792,0.2806,0.2813,0.2864,0.2884,0.2996,0.3076,0.3196,0.329,0.3498,0.3593,0.3729,0.3756,0.3589,0.3744,0.3728,0.3574,0.3274,0.3179,0.3558,0.3649,0.3649,0.3649,0.3649,0.3649,0.2725,0.2716,0.2731,0.2722,0.2731,0.2719,0.2693,0.2775,0.283,0.292,0.3097,0.3213,0.3484,0.3685,0.369,0.3749,0.3593,0.369,0.3667,0.341,0.3278,0.3665,0.375,0.375,0.3751,0.3751,0.3751,0,0.267,0.2666,0.2663,0.2637,0.2598,0.2633,0.264,0.2603,0.2628,0.2812,0.292,0.3202,0.3393,0.3579,0.3779,0.3702,0.3455,0.3636,0.3292,0.322,0.3628,0.3594,0.3627,0.3627,0.3627,0.3627,0.3627,0.3628,0.2646,0.261,0.2594,0.2501,0.2479,0.2374,0.2344,0.233,0.242,0.2538,0.2703,0.2878,0.3261,0.3653,0.3733,0.3669,0.3378,0.3231,0.3158,0.3544,0.3546,0.3548,0.3511,0.3526,0.3526,0.2609,0.2603,0.2598]},{"header":{"parameterUnit":"m.s-1","parameterCategory":2,"la1":30.2991,"la2":30.254,"lo1":-89.0895,"lo2":-89.0444,"dy":0.0017,"dx":0.0017,"nx":28,"ny":28,"refTime":"2024-04-27T03:00:00:Z","depth":"0","parameterNumber":3,"parameterNumberName":"V-component_of_CURRENTS"},"data":[0,0,0,0,0,0,0,0,0,0,0,0,0,0,0,0,0,0,0,0,0,0,0,0,0,0,0,0,0,0,0,0,0,0,0,0,0,0,0,0,0,0,0,0,0,0,0,0,0,0,0,0,0,0,0,0,0,0,0.0078,0.0078,0,-0.0005,-0.0006,-0.0007,-0.0053,-0.0053,-0.0053,-0.0053,-0.0157,-0.016,-0.0163,0,0,0,0,0,0,0,0,0,0,0,0,0,0.0148,0.0148,0.0078,0.0077,0.0076,-0.0005,-0.0006,-0.0008,-0.0053,-0.0053,-0.0053,-0.0053,-0.0156,-0.016,-0.0163,0,0,0,0,0,0,0,0,0,0,0,0,0,0.0096,0.0147,0.0079,0.0045,0.0041,-0.0005,-0.0006,-0.0008,-0.0053,-0.0053,-0.0053,-0.0053,-0.0155,-0.0159,-0.0163,-0.0187,0,0,-0.0176,-0.0178,0,0,0,0,0,0,0,0,0.0099,0.0094,0.0051,0.0047,0.0042,-0.0018,-0.002,-0.0069,-0.0053,-0.0018,-0.0053,-0.0053,-0.0112,-0.012,-0.0136,-0.0192,-0.0197,-0.0176,-0.0179,-0.0181,-0.0182,0,0,0,0,0,0,0,0.0103,0.0097,0.0045,0.005,0.0045,0.0016,0.0009,-0.003,-0.0065,-0.0021,-0.0024,-0.0033,-0.0115,-0.0132,-0.0139,-0.0198,-0.0176,-0.018,-0.0182,-0.0184,-0.0271,-0.027,0,0,0,0,0,0,0.0117,0.01,0.0047,0.0042,0.0072,0.0015,0.0007,0.0001,-0.0064,-0.0073,-0.0032,-0.0034,-0.0125,-0.0134,-0.0143,-0.0155,-0.0181,-0.0184,-0.0187,-0.0271,-0.027,-0.027,0,0,0,0,0,0,0.0119,0.0114,0.0051,0.007,0.006,0.0015,0.0007,-0.0001,-0.0012,-0.0072,-0.0082,-0.0034,-0.0125,-0.0137,-0.0167,-0.0161,-0.0186,-0.019,-0.0271,-0.0271,-0.027,-0.0193,0,0,0,0,0,0,0.0122,0.0115,0.0115,0.0071,0.0059,0.0034,0.0007,-0.0002,-0.0017,-0.002,-0.0077,-0.0088,-0.0126,-0.0161,-0.0171,-0.0167,-0.0193,-0.0271,-0.0271,-0.027,-0.0196,-0.0191,-0.0186,0,0,0,0,0,0.0124,0.0126,0.0116,0.0109,0.0061,0.0034,0.0026,-0.0008,-0.0017,-0.0018,-0.0055,-0.0085,-0.0167,-0.0164,-0.0176,-0.0173,-0.0271,-0.0271,-0.0271,-0.0198,-0.0192,-0.0186,0,0,0,0,0,0,0.0156,0.012,0.0108,0.0099,0.0074,0.0027,0.0021,0.0001,-0.003,-0.0031,-0.0084,-0.0097,-0.0121,-0.0158,-0.0154,-0.0197,-0.0224,-0.0226,-0.0165,-0.0159,-0.0154,-0.0131,-0.0197,0,0,0,0,0,0.0164,0.0158,0.012,0.0116,0.0106,0.0067,0.0052,0.0032,-0.0002,-0.0015,-0.0055,-0.0097,-0.0132,-0.0152,-0.019,-0.0214,-0.0245,-0.022,-0.0215,-0.021,-0.02,-0.0239,-0.0236,-0.0269,-0.0269,-0.0269,0,0,0.0173,0.0156,0.0151,0.0122,0.01,0.0095,0.0058,0.0043,0.004,-0.0022,-0.0037,-0.008,-0.0133,-0.0159,-0.0173,-0.0187,-0.0218,-0.021,-0.0205,-0.0198,-0.0238,-0.0235,-0.0232,-0.0269,-0.0269,-0.0269,0,0,0.0198,0.0177,0.0183,0.0167,0.0142,0.0118,0.012,0.008,0.0065,0.0042,-0.0,-0.0034,-0.0092,-0.0126,-0.0151,-0.0141,-0.0188,-0.0156,-0.0112,-0.0149,-0.0147,-0.0145,-0.0177,-0.0179,-0.0154,-0.0154,-0.0154,0,0.0213,0.0213,0.0181,0.0185,0.0178,0.0137,0.0146,0.0124,0.0079,0.0072,0.0048,-0.0026,-0.0075,-0.0099,-0.0099,-0.0129,-0.0155,-0.0129,-0.0141,-0.014,-0.0139,-0.0173,-0.0176,-0.015,-0.0151,-0.0151,-0.0151,0,0.0241,0.0241,0.0245,0.0239,0.0229,0.0228,0.0198,0.019,0.0166,0.0137,0.0108,0.0042,-0.0,-0.0025,-0.0062,-0.0078,-0.0099,-0.0127,-0.0152,-0.0131,-0.0168,-0.0172,-0.0145,-0.0146,-0.0147,-0.0148,0,0,0.0279,0.0267,0.027,0.0281,0.0258,0.0258,0.0259,0.0247,0.0257,0.0203,0.0207,0.0133,0.0097,0.0067,0.0015,-0.0022,-0.0048,-0.0066,-0.007,-0.0088,-0.0124,-0.0125,-0.013,-0.0075,-0.0076,-0.0076,-0.0151,0,0.0313,0.0336,0.0318,0.0347,0.0358,0.033,0.0341,0.0325,0.0298,0.029,0.0223,0.0197,0.0132,0.0115,0.007,-0.0015,-0.0055,-0.0024,-0.015,-0.0154,-0.0149,-0.0134,-0.0075,-0.0135,-0.0155,-0.0156,-0.0156,0,0.0353,0.0363,0.0396,0.0412,0.0416,0.0428,0.0445,0.0446,0.0419,0.0399,0.036,0.0302,0.0244,0.0185,0.0059,0.0083,-0.0011,-0.0082,-0.0088,-0.0116,-0.0162,-0.0162,-0.0142,-0.0286,-0.0163,-0.0163,-0.0162,0,0.0408,0.0422,0.0455,0.0457,0.0465,0.0486,0.0493,0.0482,0.0498,0.0469,0.0477,0.0388,0.0358,0.0233,0.0086,0.0069,-0.005,-0.0098,-0.0188,-0.0189,-0.0177,-0.0177,-0.0301,-0.0188,-0.0188,-0.0188,-0.0188,0,0.0455,0.0482,0.0487,0.0507,0.0559,0.0545,0.0596,0.0592,0.0596,0.0632,0.0541,0.0553,0.0368,0.0276,0.0124,-0.0029,-0.0024,-0.0171,-0.0205,-0.0149,-0.0145,-0.0301,-0.042,-0.0191,-0.019,-0.019,-0.0189,0,0.051,0.051,0.0552,0.0573,0.0588,0.0627,0.0669,0.0706,0.0702,0.075,0.0747,0.0674,0.0563,0.0378,0.0179,0.0036,-0.0212,-0.0185,-0.0102,-0.0125,-0.0348,-0.0464,-0.0607,-0.0728,-0.0301,-0.0301,-0.0302,0,0.0538,0.0566,0.0607,0.064,0.0653,0.0705,0.075,0.0761,0.0805,0.0835,0.0872,0.0785,0.0757,0.0475,0.021,-0.0043,-0.0219,-0.0181,-0.0211,-0.0344,-0.0499,-0.0539,-0.0635,-0.017,-0.0169,-0.0169,-0.0168,0,0.0592,0.0607,0.064,0.0707,0.0761,0.082,0.0883,0.0937,0.097,0.1021,0.1075,0.106,0.0824,0.0617,0.0271,0.0075,-0.0282,-0.0177,-0.0337,-0.0422,-0.0452,-0.0588,-0.0143,-0.0163,-0.0163,-0.0164,-0.0164,-0.0164,0.0635,0.0666,0.0711,0.0776,0.084,0.0924,0.0984,0.1068,0.1162,0.126,0.1245,0.1296,0.1006,0.0558,0.0249,-0.0219,-0.0272,-0.0349,-0.0483,-0.0511,-0.0614,-0.0154,-0.0199,-0.02,-0.0201,-0.0201,-0.0202,0,0.0681,0.0714,0.0775,0.085,0.0925,0.0951,0.1065,0.1137,0.1265,0.1405,0.1472,0.1449,0.1057,0.0618,0.002,-0.0388,-0.0578,-0.0638,-0.0688,-0.0784,-0.0376,-0.0355,-0.0408,-0.0408,-0.0408,-0.0408,-0.0408,-0.0407,0.0706,0.0765,0.0789,0.0905,0.0964,0.1061,0.1128,0.1248,0.1372,0.1568,0.1692,0.176,0.1569,0.0445,-0.033,-0.0609,-0.0972,-0.1029,-0.1255,-0.0969,-0.0951,-0.0935,-0.0939,-0.1114,-0.1115,-0.1556,-0.1561,-0.1565]}],[{"header":{"parameterUnit":"m.s-1","parameterCategory":2,"la1":30.2991,"la2":30.254,"lo1":-89.0895,"lo2":-89.0444,"dy":0.0017,"dx":0.0017,"nx":28,"ny":28,"refTime":"2024-04-27T03:00:00:Z","depth":"2","parameterNumber":2,"parameterNumberName":"U-component_of_CURRENTS"},"data":[0,0,0,0,0,0,0,0,0,0,0,0,0,0,0,0,0,0,0,0,0,0,0,0,0,0,0,0,0,0,0,0,0,0,0,0,0,0,0,0,0,0,0,0,0,0,0,0,0,0,0,0,0,0,0,0,0,0,0.2963,0.2963,0,0.2949,0.2949,0.2948,0.2924,0.2924,0.2924,0.2924,0.2899,0.2899,0.2899,0,0,0,0,0,0,0,0,0,0,0,0,0,0.2993,0.2992,0.2963,0.2963,0.2963,0.2949,0.2949,0.2948,0.2924,0.2924,0.2924,0.2923,0.29,0.2899,0.2899,0,0,0,0,0,0,0,0,0,0,0,0,0,0.2977,0.2992,0.2963,0.2951,0.295,0.2949,0.2949,0.2948,0.2924,0.2924,0.2924,0.2923,0.29,0.2899,0.2899,0.2903,0,0,0.2897,0.2896,0,0,0,0,0,0,0,0,0.2978,0.2976,0.2953,0.2952,0.2951,0.294,0.295,0.2933,0.2925,0.2932,0.2924,0.2923,0.2914,0.2912,0.2907,0.2902,0.2901,0.2897,0.2896,0.2896,0.2896,0,0,0,0,0,0,0,0.2979,0.2977,0.2956,0.2953,0.2952,0.2954,0.2951,0.2947,0.2924,0.2931,0.293,0.2932,0.2913,0.2908,0.2907,0.29,0.2897,0.2896,0.2896,0.2896,0.2925,0.2926,0,0,0,0,0,0,0.2984,0.2978,0.2956,0.2955,0.2966,0.2954,0.2951,0.2942,0.2924,0.2921,0.2932,0.2931,0.2909,0.2907,0.2906,0.2934,0.2896,0.2895,0.2895,0.2924,0.2925,0.2926,0,0,0,0,0,0,0.2985,0.2982,0.2957,0.2968,0.2966,0.2954,0.2945,0.2942,0.2943,0.2925,0.2921,0.2937,0.2909,0.2907,0.2909,0.2932,0.2895,0.2895,0.2922,0.2924,0.2926,0.2975,0,0,0,0,0,0,0.2985,0.2982,0.2981,0.2968,0.2965,0.2965,0.2945,0.2942,0.2946,0.2944,0.2928,0.2925,0.2908,0.2911,0.2909,0.293,0.2894,0.2921,0.2923,0.2925,0.2972,0.2978,0.2983,0,0,0,0,0,0.2986,0.2984,0.2981,0.2979,0.2963,0.2966,0.2965,0.2954,0.2946,0.2952,0.2941,0.2926,0.2923,0.2911,0.2909,0.293,0.292,0.2922,0.2925,0.2969,0.2977,0.2983,0,0,0,0,0,0,0.2996,0.2981,0.2978,0.2971,0.2975,0.2963,0.2967,0.2962,0.2957,0.2956,0.2935,0.2932,0.2947,0.2932,0.2919,0.2946,0.2921,0.2923,0.2956,0.2963,0.2968,0.2971,0.2894,0,0,0,0,0,0.3,0.2991,0.2987,0.2984,0.2987,0.2981,0.2982,0.2977,0.2971,0.2968,0.2957,0.2951,0.2956,0.2953,0.2952,0.2962,0.2971,0.2977,0.2982,0.2987,0.299,0.303,0.304,0.2934,0.2934,0.2934,0,0,0.3,0.2994,0.2988,0.2986,0.2986,0.2991,0.298,0.2987,0.2991,0.2968,0.297,0.2972,0.2964,0.2978,0.2983,0.2967,0.3025,0.2991,0.2995,0.2994,0.3034,0.3044,0.3054,0.2936,0.2936,0.2936,0,0,0.3002,0.2998,0.2994,0.3001,0.3008,0.3006,0.3012,0.3009,0.301,0.3017,0.3008,0.3021,0.3017,0.3019,0.3019,0.3057,0.3058,0.3062,0.3087,0.3127,0.3137,0.3145,0.3179,0.319,0.306,0.306,0.306,0,0.3008,0.2998,0.2998,0.3004,0.3011,0.3015,0.3022,0.3026,0.3024,0.3037,0.3025,0.3047,0.3037,0.3065,0.3075,0.307,0.3093,0.3061,0.3136,0.3144,0.3151,0.3185,0.3196,0.3062,0.3062,0.3062,0.3062,0,0.3006,0.3006,0.301,0.3014,0.3026,0.3034,0.3044,0.3061,0.3066,0.307,0.3104,0.3098,0.3114,0.3117,0.3103,0.3155,0.3156,0.3143,0.3118,0.3165,0.3197,0.3208,0.3066,0.3065,0.3064,0.3064,0,0,0.2987,0.3004,0.3004,0.3012,0.3032,0.3038,0.3067,0.3092,0.3115,0.3126,0.316,0.317,0.318,0.3181,0.3179,0.3204,0.3273,0.3197,0.3198,0.3231,0.337,0.3379,0.3392,0.3281,0.3283,0.3284,0.3375,0,0.2985,0.2997,0.3007,0.302,0.3029,0.3057,0.3081,0.311,0.3137,0.3172,0.3193,0.3218,0.3201,0.3217,0.3245,0.3268,0.3303,0.325,0.3319,0.3321,0.3324,0.3405,0.3074,0.3128,0.3386,0.3388,0.3389,0,0.2968,0.2983,0.2994,0.3028,0.3035,0.3047,0.31,0.3123,0.3185,0.3208,0.3255,0.3274,0.3322,0.3296,0.3372,0.3344,0.3364,0.3376,0.338,0.3377,0.3351,0.3121,0.3138,0.3407,0.3405,0.3404,0.3403,0,0.294,0.2968,0.2975,0.2984,0.3025,0.3046,0.3076,0.3136,0.3162,0.3239,0.3272,0.3335,0.3372,0.3413,0.3452,0.3421,0.3537,0.3495,0.3523,0.3523,0.3248,0.3222,0.3555,0.3555,0.3554,0.3554,0.3554,0,0.2917,0.2921,0.2963,0.2963,0.2982,0.3029,0.3059,0.3106,0.3178,0.3217,0.3285,0.3335,0.3405,0.3479,0.3495,0.3562,0.3581,0.3551,0.3559,0.3259,0.3234,0.347,0.3459,0.3558,0.3557,0.3556,0.3556,0,0.2865,0.2891,0.2899,0.2948,0.2959,0.2974,0.303,0.3062,0.3141,0.3203,0.3232,0.3355,0.3464,0.3537,0.3623,0.3622,0.3675,0.3689,0.3342,0.3308,0.3617,0.3608,0.3727,0.3728,0.3729,0.373,0.3731,0,0.2834,0.2835,0.2868,0.2873,0.2888,0.2918,0.2939,0.3022,0.3064,0.3206,0.3239,0.3385,0.3465,0.362,0.3621,0.3678,0.3741,0.344,0.3324,0.3646,0.3641,0.3629,0.3618,0.2967,0.2961,0.2957,0.2953,0,0.2783,0.2794,0.2805,0.2812,0.2826,0.2834,0.2885,0.2905,0.3016,0.3086,0.3204,0.3287,0.3432,0.3359,0.3465,0.3447,0.3406,0.3357,0.3771,0.3004,0.2945,0.2935,0.2945,0.2912,0.2917,0.2919,0.2922,0.2923,0.2744,0.2736,0.2751,0.2743,0.2752,0.274,0.2715,0.2773,0.2817,0.2866,0.3048,0.3067,0.3133,0.3129,0.3063,0.302,0.3263,0.3116,0.3122,0.3134,0.306,0.3009,0.2974,0.2978,0.2982,0.2985,0.2988,0,0.2676,0.2686,0.2683,0.2659,0.2607,0.2655,0.2662,0.2605,0.2592,0.2686,0.2739,0.2582,0.2542,0.2621,0.2479,0.2531,0.2411,0.2449,0.2236,0.2281,0.232,0.2195,0.1884,0.1881,0.1877,0.1874,0,0,0.2649,0.2608,0.2593,0.2495,0.2486,0.2379,0.235,0.2302,0.2317,0.2274,0.2262,0.2402,0.2553,0.2171,0.2141,0.1988,0.2106,0.1909,0.2799,0.2592,0.2626,0.2722,0.2587,0,0,0,0,0]},{"header":{"parameterUnit":"m.s-1","parameterCategory":2,"la1":30.2991,"la2":30.254,"lo1":-89.0895,"lo2":-89.0444,"dy":0.0017,"dx":0.0017,"nx":28,"ny":28,"refTime":"2024-04-27T03:00:00:Z","depth":"2","parameterNumber":3,"parameterNumberName":"V-component_of_CURRENTS"},"data":[0,0,0,0,0,0,0,0,0,0,0,0,0,0,0,0,0,0,0,0,0,0,0,0,0,0,0,0,0,0,0,0,0,0,0,0,0,0,0,0,0,0,0,0,0,0,0,0,0,0,0,0,0,0,0,0,0,0,0.0056,0.0055,0,-0.0027,-0.0028,-0.0029,-0.0074,-0.0074,-0.0074,-0.0074,-0.0179,-0.0181,-0.0184,0,0,0,0,0,0,0,0,0,0,0,0,0,0.0125,0.0125,0.0056,0.0055,0.0054,-0.0027,-0.0028,-0.003,-0.0074,-0.0074,-0.0074,-0.0074,-0.0178,-0.0181,-0.0184,0,0,0,0,0,0,0,0,0,0,0,0,0,0.0073,0.0124,0.0056,0.0022,0.0019,-0.0027,-0.0029,-0.003,-0.0074,-0.0074,-0.0074,-0.0074,-0.0177,-0.0181,-0.0185,-0.0209,0,0,-0.0197,-0.0199,0,0,0,0,0,0,0,0,0.0077,0.0071,0.0028,0.0025,0.002,-0.004,-0.0042,-0.0091,-0.0074,-0.004,-0.0074,-0.0074,-0.0134,-0.0141,-0.0158,-0.0214,-0.0218,-0.0198,-0.02,-0.0202,-0.0203,0,0,0,0,0,0,0,0.008,0.0074,0.0022,0.0027,0.0022,-0.0006,-0.0013,-0.0052,-0.0086,-0.0043,-0.0046,-0.0054,-0.0136,-0.0153,-0.016,-0.022,-0.0198,-0.0201,-0.0204,-0.0205,-0.0292,-0.0292,0,0,0,0,0,0,0.0094,0.0078,0.0025,0.002,0.005,-0.0007,-0.0015,-0.0021,-0.0086,-0.0095,-0.0054,-0.0056,-0.0146,-0.0156,-0.0164,-0.0177,-0.0202,-0.0206,-0.0208,-0.0292,-0.0292,-0.0292,0,0,0,0,0,0,0.0096,0.0091,0.0028,0.0047,0.0037,-0.0008,-0.0015,-0.0023,-0.0034,-0.0094,-0.0104,-0.0056,-0.0147,-0.0159,-0.0189,-0.0182,-0.0208,-0.0211,-0.0292,-0.0292,-0.0292,-0.0215,0,0,0,0,0,0,0.0099,0.0092,0.0092,0.0048,0.0037,0.0011,-0.0015,-0.0024,-0.0039,-0.0042,-0.0099,-0.0109,-0.0148,-0.0182,-0.0193,-0.0188,-0.0215,-0.0293,-0.0292,-0.0292,-0.0218,-0.0213,-0.0208,0,0,0,0,0,0.0101,0.0103,0.0093,0.0086,0.0039,0.0012,0.0003,-0.003,-0.0039,-0.004,-0.0076,-0.0107,-0.0188,-0.0185,-0.0198,-0.0194,-0.0293,-0.0292,-0.0292,-0.022,-0.0214,-0.0208,0,0,0,0,0,0,0.0132,0.0097,0.0085,0.0076,0.0051,0.0005,-0.0002,-0.0021,-0.0052,-0.0053,-0.0106,-0.0118,-0.0143,-0.0179,-0.0175,-0.0219,-0.0246,-0.0248,-0.0187,-0.0181,-0.0176,-0.0153,-0.0218,0,0,0,0,0,0.0141,0.0135,0.0097,0.0092,0.0083,0.0044,0.0029,0.0009,-0.0024,-0.0037,-0.0077,-0.0118,-0.0153,-0.0173,-0.0212,-0.0236,-0.0267,-0.0242,-0.0237,-0.0232,-0.0222,-0.0261,-0.0258,-0.0291,-0.0291,-0.0291,0,0,0.015,0.0132,0.0127,0.0099,0.0077,0.0071,0.0035,0.0021,0.0018,-0.0044,-0.006,-0.0102,-0.0155,-0.018,-0.0195,-0.0209,-0.024,-0.0232,-0.0227,-0.022,-0.026,-0.0257,-0.0254,-0.029,-0.029,-0.0291,0,0,0.0173,0.0154,0.0159,0.0143,0.0118,0.0095,0.0097,0.0057,0.0042,0.0019,-0.0023,-0.0057,-0.0114,-0.0148,-0.0173,-0.0164,-0.021,-0.0178,-0.0135,-0.0172,-0.0169,-0.0167,-0.02,-0.0201,-0.0176,-0.0176,-0.0176,0,0.0189,0.0188,0.0157,0.016,0.0154,0.0113,0.0122,0.01,0.0056,0.0048,0.0025,-0.0048,-0.0098,-0.0122,-0.0122,-0.0151,-0.0177,-0.0151,-0.0164,-0.0162,-0.0162,-0.0196,-0.0198,-0.0172,-0.0173,-0.0173,-0.0173,0,0.0215,0.0216,0.0219,0.0213,0.0203,0.0202,0.0172,0.0165,0.0141,0.0112,0.0084,0.0018,-0.0024,-0.0048,-0.0085,-0.0101,-0.0122,-0.015,-0.0174,-0.0153,-0.0191,-0.0195,-0.0167,-0.0168,-0.0169,-0.017,0,0,0.0252,0.0241,0.0244,0.0254,0.0231,0.0231,0.0233,0.022,0.023,0.0177,0.018,0.0108,0.0072,0.0042,-0.0009,-0.0046,-0.0072,-0.0089,-0.0093,-0.0112,-0.0147,-0.0149,-0.0154,-0.0099,-0.0099,-0.0099,-0.0174,0,0.0286,0.0309,0.029,0.0318,0.0329,0.0302,0.0312,0.0296,0.027,0.0261,0.0196,0.017,0.0107,0.009,0.0045,-0.0039,-0.0079,-0.0048,-0.0174,-0.0177,-0.0173,-0.0158,-0.0158,-0.0223,-0.0179,-0.0179,-0.018,0,0.0325,0.0334,0.0367,0.0382,0.0386,0.0398,0.0415,0.0416,0.0389,0.0369,0.0331,0.0274,0.0217,0.0158,0.0033,0.0058,-0.0035,-0.0107,-0.0112,-0.014,-0.0186,-0.0239,-0.0233,-0.0187,-0.0187,-0.0186,-0.0186,0,0.0379,0.0393,0.0425,0.0427,0.0435,0.0455,0.0463,0.0451,0.0468,0.0439,0.0446,0.0358,0.0328,0.0205,0.0059,0.0043,-0.0076,-0.0122,-0.0212,-0.0214,-0.0252,-0.0256,-0.0213,-0.0213,-0.0213,-0.0212,-0.0212,0,0.0426,0.0453,0.0457,0.0477,0.0528,0.0514,0.0564,0.056,0.0565,0.06,0.051,0.0522,0.0339,0.0247,0.0097,-0.0055,-0.0051,-0.0196,-0.023,-0.0225,-0.0225,-0.0227,-0.0228,-0.0215,-0.0215,-0.0214,-0.0214,0,0.048,0.048,0.0521,0.0542,0.0557,0.0596,0.0637,0.0673,0.067,0.0717,0.0715,0.0641,0.0531,0.0347,0.015,0.0008,-0.0151,-0.0211,-0.0187,-0.0216,-0.0278,-0.0274,-0.0325,-0.0325,-0.0326,-0.0326,-0.0327,0,0.0508,0.0536,0.0576,0.0609,0.0622,0.0674,0.0718,0.0729,0.0773,0.0801,0.0837,0.075,0.0715,0.0435,0.0158,-0.0099,-0.0131,-0.0268,-0.0306,-0.026,-0.0288,-0.0283,-0.0279,-0.0334,-0.0335,-0.0335,-0.0335,0,0.0562,0.0577,0.061,0.0677,0.073,0.0788,0.085,0.0903,0.0936,0.0976,0.1028,0.1006,0.0759,0.0498,0.0146,-0.0033,-0.0228,-0.0282,-0.0245,-0.0294,-0.0272,-0.0298,-0.0293,-0.0338,-0.0338,-0.0338,-0.0338,-0.0337,0.0605,0.0635,0.0681,0.0746,0.0809,0.0892,0.0951,0.0992,0.1071,0.1095,0.1124,0.1059,0.0823,0.0345,0.0077,-0.0238,-0.0228,-0.0361,-0.0359,-0.0357,-0.0333,-0.0312,-0.0381,-0.0381,-0.0381,-0.0381,-0.0381,0,0.0637,0.0683,0.0744,0.0819,0.0871,0.092,0.1032,0.1036,0.1097,0.1118,0.112,0.0885,0.0634,0.0361,-0.0102,-0.0348,-0.038,-0.0431,-0.042,-0.0415,-0.0411,-0.0389,-0.0453,-0.0454,-0.0455,-0.0455,0,0,0.0659,0.0709,0.0733,0.0833,0.0906,0.0952,0.1017,0.1026,0.1025,0.1003,0.097,0.0927,0.0677,0.0329,0.0014,-0.0231,-0.028,-0.0287,-0.0208,-0.0156,-0.0149,-0.0352,-0.0309,0,0,0,0,0]}],[{"header":{"parameterUnit":"m.s-1","parameterCategory":2,"la1":30.2991,"la2":30.254,"lo1":-89.0895,"lo2":-89.0444,"dy":0.0017,"dx":0.0017,"nx":28,"ny":28,"refTime":"2024-04-27T03:00:00:Z","depth":"4","parameterNumber":2,"parameterNumberName":"U-component_of_CURRENTS"},"data":[0,0,0,0,0,0,0,0,0,0,0,0,0,0,0,0,0,0,0,0,0,0,0,0,0,0,0,0,0,0,0,0,0,0,0,0,0,0,0,0,0,0,0,0,0,0,0,0,0,0,0,0,0,0,0,0,0,0,0.1928,0.1928,0,0.1968,0.1968,0.1968,0.2007,0.2008,0.2009,0.201,0.2057,0.2057,0.2058,0,0,0,0,0,0,0,0,0,0,0,0,0,0.1856,0.1857,0.1927,0.1928,0.1929,0.1968,0.1968,0.1968,0.2007,0.2008,0.2009,0.201,0.2057,0.2057,0.2058,0,0,0,0,0,0,0,0,0,0,0,0,0,0.1888,0.1858,0.1927,0.1955,0.1958,0.1968,0.1968,0.1968,0.2007,0.2008,0.2009,0.2011,0.2056,0.2057,0.2058,0.204,0,0,0.206,0.2061,0,0,0,0,0,0,0,0,0.1887,0.1891,0.195,0.1953,0.1957,0.1986,0.196,0.1994,0.2007,0.1986,0.201,0.2011,0.2035,0.2037,0.2038,0.2042,0.2044,0.206,0.2061,0.2061,0.2062,0,0,0,0,0,0,0,0.1884,0.1889,0.1941,0.1951,0.1955,0.1956,0.1962,0.1966,0.2001,0.1988,0.1991,0.2,0.2036,0.2037,0.204,0.2045,0.206,0.2061,0.2062,0.2062,0.216,0.2162,0,0,0,0,0,0,0.1885,0.1887,0.1939,0.1942,0.1927,0.1957,0.1963,0.1973,0.2001,0.2007,0.1999,0.2001,0.2036,0.2039,0.2042,0.213,0.2061,0.2062,0.2063,0.2158,0.216,0.2163,0,0,0,0,0,0,0.1883,0.1889,0.1938,0.1917,0.1924,0.1957,0.1968,0.1974,0.2016,0.201,0.2016,0.2041,0.2037,0.2041,0.2086,0.2128,0.2062,0.2063,0.2155,0.2159,0.2162,0.2237,0,0,0,0,0,0,0.1881,0.1889,0.1916,0.1918,0.1926,0.1971,0.1968,0.1974,0.2018,0.2023,0.2047,0.205,0.2038,0.2085,0.2087,0.2128,0.2064,0.2153,0.2157,0.2161,0.2232,0.2242,0.2251,0,0,0,0,0,0.1878,0.1902,0.1917,0.1924,0.1955,0.1972,0.1977,0.2001,0.202,0.2043,0.2066,0.2052,0.2112,0.2087,0.2089,0.2131,0.2151,0.2156,0.216,0.2227,0.224,0.2251,0,0,0,0,0,0,0.1885,0.1909,0.1925,0.1956,0.1978,0.1981,0.2012,0.2025,0.2061,0.208,0.2073,0.2078,0.2136,0.2124,0.2098,0.2173,0.2131,0.2136,0.2182,0.2193,0.2203,0.2197,0.2064,0,0,0,0,0,0.1899,0.1929,0.1944,0.1976,0.1992,0.201,0.203,0.2046,0.2068,0.2087,0.2103,0.2126,0.2149,0.2166,0.2181,0.2216,0.2213,0.2247,0.2257,0.2265,0.2263,0.2303,0.2316,0.2178,0.2178,0.2178,0,0,0.191,0.1929,0.1948,0.1981,0.2003,0.2025,0.2026,0.2067,0.2094,0.2085,0.2143,0.2164,0.2168,0.2214,0.2238,0.2213,0.2306,0.2271,0.2278,0.2272,0.2309,0.2322,0.2334,0.2181,0.2181,0.218,0,0,0.193,0.1968,0.1995,0.2017,0.2059,0.2067,0.209,0.2118,0.2148,0.2196,0.2204,0.225,0.2281,0.2292,0.2299,0.2371,0.236,0.2389,0.2429,0.2468,0.2479,0.2489,0.2511,0.2522,0.239,0.239,0.239,0,0.1947,0.1978,0.2006,0.2032,0.2059,0.2091,0.212,0.2147,0.219,0.222,0.223,0.2305,0.2313,0.2361,0.2391,0.2392,0.2411,0.2382,0.248,0.249,0.2498,0.2518,0.2529,0.2394,0.2393,0.2393,0.2393,0,0.1969,0.2011,0.2031,0.2075,0.2106,0.2142,0.2175,0.2223,0.2267,0.229,0.2369,0.2388,0.2431,0.2449,0.2441,0.2514,0.2506,0.2491,0.2447,0.2517,0.2533,0.2544,0.24,0.2398,0.2397,0.2396,0,0,0.1957,0.2032,0.2043,0.2073,0.2136,0.2155,0.2219,0.2273,0.2322,0.2379,0.244,0.2492,0.252,0.253,0.254,0.2572,0.2653,0.2566,0.2566,0.2581,0.2743,0.258,0.2575,0.2666,0.2668,0.267,0.2732,0,0.1969,0.2023,0.2061,0.2119,0.2147,0.2206,0.2255,0.2315,0.2374,0.2441,0.2486,0.2548,0.2545,0.2584,0.262,0.2648,0.2684,0.2637,0.2678,0.2679,0.2519,0.2582,0.2676,0.274,0.2742,0.2744,0.2745,0,0.1965,0.2006,0.2065,0.2142,0.2163,0.2208,0.2302,0.2353,0.2449,0.2497,0.2573,0.2612,0.2684,0.2667,0.275,0.2729,0.2747,0.2757,0.2759,0.2582,0.2534,0.2654,0.2763,0.2762,0.276,0.2759,0.2758,0,0.1918,0.2002,0.2054,0.208,0.2172,0.2226,0.2286,0.2382,0.2432,0.2547,0.2596,0.2683,0.2738,0.2783,0.282,0.2802,0.2896,0.2867,0.2734,0.2723,0.2817,0.2806,0.2923,0.2923,0.2923,0.2923,0.2923,0,0.1889,0.1933,0.2045,0.2069,0.2137,0.2216,0.2299,0.2369,0.2476,0.2531,0.263,0.2675,0.2776,0.2837,0.2854,0.2824,0.2929,0.2745,0.2729,0.2849,0.284,0.2824,0.2812,0.2925,0.2925,0.2924,0.2924,0,0.1817,0.1894,0.1956,0.2074,0.2115,0.2167,0.2295,0.2344,0.246,0.2539,0.2581,0.27,0.277,0.2845,0.2919,0.2845,0.2845,0.2811,0.2943,0.2934,0.2636,0.2628,0.2652,0.2647,0.2642,0.2639,0.2636,0,0.178,0.181,0.1943,0.1984,0.2046,0.2138,0.2193,0.2321,0.2367,0.2525,0.2543,0.2667,0.2729,0.2692,0.2791,0.2808,0.2779,0.2755,0.2677,0.2627,0.261,0.2609,0.2606,0.2629,0.2627,0.2626,0.2625,0,0.171,0.1779,0.1833,0.1916,0.1988,0.2044,0.2138,0.2152,0.2292,0.2418,0.2434,0.2465,0.2538,0.2582,0.2621,0.2629,0.2752,0.2708,0.2716,0.2642,0.2599,0.2586,0.2589,0.261,0.2612,0.2613,0.2614,0,0.1667,0.1687,0.1772,0.1825,0.1909,0.1925,0.1985,0.2028,0.2083,0.2248,0.2255,0.2382,0.2509,0.2491,0.253,0.2525,0.2479,0.2384,0.2408,0.2426,0.2324,0.2234,0.2122,0,0,0,0,0,0.161,0.1619,0.1669,0.1715,0.1789,0.1834,0.1932,0.1993,0.2125,0.2077,0.2154,0.2206,0.2241,0.2312,0.2262,0.2454,0.2508,0.2386,0.2415,0.2525,0.2542,0.2444,0,0,0,0,0,0,0.1573,0.1622,0.163,0.161,0.162,0.1678,0.1736,0.1826,0.18,0.1943,0.197,0.2078,0.2149,0.2249,0.2221,0.2246,0.2219,0.2474,0.2468,0.2515,0.2531,0.2545,0.245,0,0,0,0,0]},{"header":{"parameterUnit":"m.s-1","parameterCategory":2,"la1":30.2991,"la2":30.254,"lo1":-89.0895,"lo2":-89.0444,"dy":0.0017,"dx":0.0017,"nx":28,"ny":28,"refTime":"2024-04-27T03:00:00:Z","depth":"4","parameterNumber":3,"parameterNumberName":"V-component_of_CURRENTS"},"data":[0,0,0,0,0,0,0,0,0,0,0,0,0,0,0,0,0,0,0,0,0,0,0,0,0,0,0,0,0,0,0,0,0,0,0,0,0,0,0,0,0,0,0,0,0,0,0,0,0,0,0,0,0,0,0,0,0,0,-0.0003,-0.0004,0,-0.0057,-0.0058,-0.0059,-0.0089,-0.0089,-0.0089,-0.0089,-0.0174,-0.0176,-0.0178,0,0,0,0,0,0,0,0,0,0,0,0,0,0.0036,0.0035,-0.0003,-0.0004,-0.0005,-0.0057,-0.0058,-0.0059,-0.0089,-0.0089,-0.0089,-0.0089,-0.0173,-0.0176,-0.0178,0,0,0,0,0,0,0,0,0,0,0,0,0,0.0004,0.0035,-0.0003,-0.0026,-0.0028,-0.0057,-0.0058,-0.0059,-0.0089,-0.0089,-0.0089,-0.0089,-0.0172,-0.0176,-0.0179,-0.0197,0,0,-0.0189,-0.019,0,0,0,0,0,0,0,0,0.0006,0.0002,-0.0022,-0.0024,-0.0027,-0.0066,-0.0075,-0.0107,-0.0089,-0.0066,-0.0089,-0.009,-0.0141,-0.0146,-0.0156,-0.0201,-0.0204,-0.0189,-0.0191,-0.0192,-0.0193,0,0,0,0,0,0,0,0.0008,0.0004,-0.0025,-0.0023,-0.0026,-0.0046,-0.0051,-0.0082,-0.0103,-0.0068,-0.0071,-0.0076,-0.0142,-0.0153,-0.0159,-0.0206,-0.0189,-0.0192,-0.0194,-0.0195,-0.0263,-0.0263,0,0,0,0,0,0,0.0017,0.0007,-0.0023,-0.0027,-0.001,-0.0047,-0.0052,-0.0054,-0.0102,-0.0109,-0.0076,-0.0077,-0.0147,-0.0155,-0.0162,-0.0175,-0.0192,-0.0195,-0.0197,-0.0263,-0.0263,-0.0263,0,0,0,0,0,0,0.0018,0.0015,-0.0021,-0.0011,-0.0017,-0.0047,-0.005,-0.0055,-0.0063,-0.0107,-0.0115,-0.0078,-0.0148,-0.0157,-0.0181,-0.0179,-0.0197,-0.02,-0.0263,-0.0263,-0.0263,-0.0208,0,0,0,0,0,0,0.002,0.0016,0.0017,-0.001,-0.0018,-0.0034,-0.005,-0.0056,-0.0067,-0.0069,-0.0112,-0.012,-0.0149,-0.0176,-0.0185,-0.0184,-0.0203,-0.0263,-0.0263,-0.0263,-0.021,-0.0206,-0.0202,0,0,0,0,0,0.0021,0.0022,0.0018,0.0014,-0.0015,-0.0034,-0.004,-0.0062,-0.0066,-0.0069,-0.0094,-0.0119,-0.018,-0.0178,-0.0188,-0.0188,-0.0264,-0.0263,-0.0263,-0.0212,-0.0207,-0.0203,0,0,0,0,0,0,0.0036,0.0018,0.0013,0.0007,-0.0009,-0.0039,-0.0045,-0.0057,-0.0079,-0.0079,-0.0117,-0.0127,-0.0147,-0.0175,-0.0172,-0.0207,-0.0226,-0.0228,-0.0184,-0.018,-0.0176,-0.0161,-0.0205,0,0,0,0,0,0.0042,0.004,0.0018,0.0014,0.0009,-0.0015,-0.0025,-0.0038,-0.0061,-0.007,-0.0099,-0.0129,-0.0154,-0.0171,-0.0199,-0.022,-0.0245,-0.0226,-0.0222,-0.0219,-0.0214,-0.0245,-0.0243,-0.0261,-0.0261,-0.0261,0,0,0.0046,0.0037,0.0034,0.0018,0.0005,0.0,-0.0021,-0.0032,-0.0034,-0.0077,-0.0088,-0.0117,-0.0156,-0.0176,-0.0188,-0.0198,-0.0227,-0.0219,-0.0215,-0.0212,-0.0244,-0.0242,-0.0241,-0.0261,-0.0261,-0.0261,0,0,0.0055,0.0048,0.005,0.004,0.0025,0.0012,0.0013,-0.0012,-0.002,-0.0036,-0.0063,-0.0087,-0.013,-0.0154,-0.0173,-0.0166,-0.0204,-0.0177,-0.0149,-0.0179,-0.0177,-0.0176,-0.0204,-0.0206,-0.0177,-0.0177,-0.0177,0,0.0061,0.0062,0.0046,0.0047,0.0044,0.0023,0.0027,0.0014,-0.0014,-0.0018,-0.0033,-0.0083,-0.0119,-0.0138,-0.0137,-0.0158,-0.0179,-0.0162,-0.0173,-0.0173,-0.0173,-0.0201,-0.0204,-0.0174,-0.0175,-0.0175,-0.0175,0,0.007,0.0073,0.0074,0.0072,0.0068,0.0067,0.0053,0.005,0.0039,0.0022,0.0004,-0.0041,-0.0069,-0.0087,-0.0112,-0.0127,-0.0144,-0.0162,-0.0181,-0.0167,-0.0199,-0.0202,-0.0171,-0.0171,-0.0172,-0.0173,0,0,0.008,0.0081,0.0082,0.0094,0.0084,0.0085,0.0089,0.0084,0.0094,0.0061,0.0066,0.0015,-0.0006,-0.0028,-0.0062,-0.0092,-0.0115,-0.0123,-0.0126,-0.0144,-0.0178,-0.0179,-0.0183,-0.0134,-0.0134,-0.0134,-0.0199,0,0.0093,0.0107,0.0103,0.0124,0.0133,0.0125,0.0135,0.013,0.0118,0.0116,0.0074,0.0061,0.0016,0.0008,-0.0028,-0.0089,-0.0123,-0.0096,-0.0194,-0.0197,-0.0195,-0.0187,-0.0136,-0.0202,-0.0203,-0.0204,-0.0204,0,0.0105,0.0116,0.0138,0.0164,0.0168,0.018,0.0202,0.0208,0.0198,0.0189,0.0165,0.0131,0.0091,0.0051,-0.0046,-0.0025,-0.0096,-0.0149,-0.0153,-0.0175,-0.0205,-0.0221,-0.0212,-0.0211,-0.0211,-0.021,-0.021,0,0.0127,0.0144,0.0169,0.0174,0.0194,0.0212,0.0228,0.023,0.0249,0.0238,0.0248,0.0187,0.0169,0.0076,-0.0033,-0.0041,-0.0141,-0.0169,-0.0238,-0.0239,-0.0243,-0.0244,-0.0242,-0.0241,-0.0241,-0.0241,-0.0241,0,0.0143,0.0164,0.0185,0.0199,0.0244,0.0248,0.0292,0.0299,0.0314,0.0344,0.0293,0.03,0.0175,0.0103,-0.0009,-0.0127,-0.0126,-0.0229,-0.0254,-0.0219,-0.0216,-0.0246,-0.0246,-0.0244,-0.0243,-0.0243,-0.0242,0,0.0159,0.0169,0.0204,0.0237,0.0255,0.0289,0.0344,0.0373,0.0386,0.0425,0.0429,0.0383,0.0293,0.0162,0.0011,-0.0086,-0.0207,-0.0254,-0.0197,-0.0218,-0.0295,-0.0291,-0.0338,-0.0339,-0.0339,-0.0339,-0.034,0,0.0167,0.0186,0.0237,0.0267,0.0285,0.0336,0.0377,0.0408,0.0441,0.0477,0.0499,0.0438,0.0386,0.0187,0.0035,-0.0174,-0.0212,-0.0281,-0.03,-0.0284,-0.0304,-0.0299,-0.0295,-0.034,-0.034,-0.0341,-0.0341,0,0.0186,0.0204,0.0235,0.0295,0.0344,0.0401,0.0458,0.049,0.0533,0.055,0.056,0.0467,0.0368,0.02,0.0041,-0.0113,-0.0238,-0.0286,-0.0287,-0.0306,-0.0288,-0.0306,-0.0301,-0.0342,-0.0342,-0.0342,-0.0342,0,0.0204,0.0224,0.0266,0.0318,0.0382,0.0442,0.0475,0.052,0.0559,0.0595,0.0598,0.0501,0.0445,0.0232,0.0088,-0.0062,-0.0115,-0.0181,-0.0188,-0.0188,-0.0131,-0.0085,-0.0094,0,0,0,0,0,0.0217,0.0235,0.0285,0.034,0.0403,0.0438,0.0519,0.0547,0.0591,0.0606,0.0604,0.0516,0.0325,0.0248,0.0097,0.005,-0.0159,-0.0135,-0.0244,-0.0351,-0.0349,-0.0308,0,0,0,0,0,0,0.0223,0.0264,0.0279,0.0347,0.0382,0.0455,0.0505,0.0541,0.0549,0.0578,0.0484,0.0456,0.0269,0.0405,0.0086,0.0044,-0.0051,-0.0218,-0.0222,-0.0352,-0.035,-0.0349,-0.0306,0,0,0,0,0]}]]